Wise, VA

5:32 PM EDT on April 25, 2017 (GMT -0400)
Lonesome Pine

Weather History for KLNP - October, 2010

Change the Weather History Date:

Monday, October 18, 2010

  Actual Average Record
Temperature  
Mean Temperature 60 °F -  
Max Temperature 73 °F 61 °F 78 °F (2007)
Min Temperature 48 °F 43 °F 30 °F (2001)
Degree Days  
Heating Degree Days 4    
Growing Degree Days 10 (Base 50)    
Moisture  
Dew Point 42 °F    
Average Humidity 52    
Maximum Humidity 71    
Minimum Humidity 36    
Precipitation  
Precipitation 0.00 in - - ()
Sea Level Pressure  
Sea Level Pressure 30.04 in    
Wind  
Wind Speed 7 mph (SW)    
Max Wind Speed 10 mph    
Max Gust Speed -    
Visibility 10 miles    
Events      
Averages and records for this station are not official NWS values.
T = Trace of Precipitation, MM = Missing Value Source: NWS Daily Summary

Daily Weather History Graph

Daily Weather History Graph

Search for Another Location

Airport or City:

Trip Planner

Search our weather history database for the weather conditions in past years. The results will help you decide how hot, cold, wet, or windy it might be!

Date:

Astronomy

Oct. 18, 2010 Rise Set
Actual Time 7:40 AM EDT 6:49 PM EDT
Civil Twilight 7:14 AM EDT 7:15 PM EDT
Nautical Twilight 6:44 AM EDT 7:45 PM EDT
Astronomical Twilight 6:13 AM EDT 8:15 PM EDT
Moon 4:28 PM EDT (10/18) 3:33 AM EDT (10/18)
Length of Visible Light 12h 01m
Length of Day
11h 08m
Waxing Gibbous, 83% of the Moon is Illuminated
Oct 18
Waxing Gibbous
Oct 22
Full
Oct 30
Last Quarter
Nov 6
New
Nov 13
First Quarter

Hourly Weather History & Observations

Time (EDT) Temp. Dew Point Humidity Pressure Visibility Wind Dir Wind Speed Gust Speed Precip Events Conditions
12:00 AM 51.8 °F 37.4 °F 58% 30.10 in 10.0 mi SW 5.8 mph - N/A   Clear
12:20 AM 51.8 °F 37.4 °F 58% 30.10 in 10.0 mi SW 6.9 mph - N/A   Clear
12:40 AM 53.6 °F 39.2 °F 58% 30.09 in 10.0 mi SW 9.2 mph - N/A   Clear
1:00 AM 55.4 °F 39.2 °F 54% 30.09 in 10.0 mi SW 9.2 mph - N/A   Clear
1:20 AM 53.6 °F 39.2 °F 58% 30.09 in 10.0 mi SW 6.9 mph - N/A   Clear
1:40 AM 53.6 °F 39.2 °F 58% 30.09 in 10.0 mi SW 6.9 mph - N/A   Clear
2:00 AM 53.6 °F 39.2 °F 58% 30.08 in 10.0 mi SSW 5.8 mph - N/A   Clear
2:20 AM 51.8 °F 39.2 °F 62% 30.08 in 10.0 mi SW 6.9 mph - N/A   Clear
2:40 AM 53.6 °F 39.2 °F 58% 30.08 in 10.0 mi SW 5.8 mph - N/A   Clear
3:00 AM 51.8 °F 39.2 °F 62% 30.07 in 10.0 mi SSW 5.8 mph - N/A   Clear
3:20 AM 51.8 °F 39.2 °F 62% 30.07 in 10.0 mi SSW 5.8 mph - N/A   Clear
3:40 AM 51.8 °F 39.2 °F 62% 30.06 in 10.0 mi SSW 5.8 mph - N/A   Clear
4:00 AM 51.8 °F 39.2 °F 62% 30.05 in 10.0 mi SSW 5.8 mph - N/A   Clear
4:20 AM 50.0 °F 39.2 °F 66% 30.06 in 10.0 mi SSW 5.8 mph - N/A   Clear
4:40 AM - - N/A% - - North - - N/A   Unknown
5:00 AM 50.0 °F 39.2 °F 66% 30.05 in 10.0 mi SW 5.8 mph - N/A   Clear
5:20 AM 50.0 °F 39.2 °F 66% 30.06 in 10.0 mi SW 6.9 mph - N/A   Clear
5:40 AM 50.0 °F 37.4 °F 62% 30.06 in 10.0 mi SW 5.8 mph - N/A   Clear
6:00 AM 48.2 °F 37.4 °F 66% 30.06 in 10.0 mi SW 8.1 mph - N/A   Clear
6:20 AM 50.0 °F 37.4 °F 62% 30.07 in 10.0 mi SW 5.8 mph - N/A   Clear
6:40 AM 50.0 °F 37.4 °F 62% 30.07 in 10.0 mi SW 5.8 mph - N/A   Clear
7:00 AM 48.2 °F 39.2 °F 71% 30.08 in 10.0 mi SW 8.1 mph - N/A   Clear
7:20 AM 50.0 °F 39.2 °F 66% 30.08 in 10.0 mi SW 6.9 mph - N/A   Clear
8:00 AM 48.2 °F 39.2 °F 71% 30.08 in 10.0 mi SW 6.9 mph - N/A   Clear
8:20 AM 51.8 °F 39.2 °F 62% 30.09 in 10.0 mi SW 6.9 mph - N/A   Clear
8:40 AM 53.6 °F 41.0 °F 62% 30.09 in 10.0 mi SW 6.9 mph - N/A   Clear
9:20 AM 55.4 °F 41.0 °F 58% 30.09 in 10.0 mi SW 5.8 mph - N/A   Clear
9:40 AM 57.2 °F 42.8 °F 59% 30.10 in 10.0 mi SW 5.8 mph - N/A   Clear
10:00 AM 59.0 °F 42.8 °F 55% 30.09 in 10.0 mi SW 4.6 mph - N/A   Clear
10:40 AM 62.6 °F 42.8 °F 48% 30.09 in 10.0 mi SW 9.2 mph - N/A   Clear
11:00 AM 66.2 °F 44.6 °F 46% 30.08 in 10.0 mi SW 6.9 mph - N/A   Clear
11:20 AM 68.0 °F 44.6 °F 43% 30.08 in 10.0 mi WSW 8.1 mph - N/A   Clear
11:40 AM 69.8 °F 44.6 °F 40% 30.07 in 10.0 mi WSW 9.2 mph - N/A   Clear
12:00 PM 69.8 °F 44.6 °F 40% 30.07 in 10.0 mi West 6.9 mph - N/A   Clear
12:20 PM 69.8 °F 44.6 °F 40% 30.07 in 10.0 mi WSW 8.1 mph - N/A   Clear
12:40 PM 69.8 °F 44.6 °F 40% 30.06 in 10.0 mi SW 8.1 mph - N/A   Clear
1:00 PM 69.8 °F 46.4 °F 43% 30.05 in 10.0 mi WSW 8.1 mph - N/A   Clear
1:20 PM 71.6 °F 44.6 °F 38% 30.04 in 10.0 mi SW 10.4 mph - N/A   Clear
1:40 PM 71.6 °F 44.6 °F 38% 30.03 in 10.0 mi SW 8.1 mph - N/A   Clear
2:00 PM 71.6 °F 44.6 °F 38% 30.02 in 10.0 mi WSW 5.8 mph - N/A   Clear
2:20 PM 73.4 °F 44.6 °F 36% 30.00 in 10.0 mi SW 4.6 mph - N/A   Clear
2:40 PM 71.6 °F 44.6 °F 38% 29.99 in 10.0 mi West 6.9 mph - N/A   Clear
3:00 PM 71.6 °F 44.6 °F 38% 29.99 in 10.0 mi WSW 5.8 mph - N/A   Clear
3:20 PM 73.4 °F 44.6 °F 36% 29.98 in 10.0 mi West 4.6 mph - N/A   Clear
3:40 PM 71.6 °F 44.6 °F 38% 29.98 in 10.0 mi Calm Calm - N/A   Clear
4:00 PM 73.4 °F 44.6 °F 36% 29.97 in 10.0 mi South 5.8 mph - N/A   Clear
4:20 PM 71.6 °F 44.6 °F 38% 29.97 in 10.0 mi SW 6.9 mph - N/A   Clear
4:40 PM 73.4 °F 44.6 °F 36% 29.96 in 10.0 mi SW 9.2 mph - N/A   Clear
5:00 PM 71.6 °F 44.6 °F 38% 29.96 in 10.0 mi SSW 9.2 mph - N/A   Clear
5:20 PM 69.8 °F 44.6 °F 40% 29.96 in 10.0 mi WSW 10.4 mph - N/A   Clear
5:40 PM 69.8 °F 44.6 °F 40% 29.96 in 10.0 mi WSW 8.1 mph - N/A   Clear
6:00 PM 69.8 °F 44.6 °F 40% 29.96 in 10.0 mi SW 8.1 mph - N/A   Clear
6:20 PM 66.2 °F 46.4 °F 49% 29.95 in 10.0 mi SSW 3.5 mph - N/A   Clear
6:40 PM 64.4 °F 46.4 °F 52% 29.96 in 10.0 mi SSW 4.6 mph - N/A   Clear
7:00 PM 62.6 °F 46.4 °F 55% 29.95 in 10.0 mi SSW 4.6 mph - N/A   Clear
7:20 PM 62.6 °F 46.4 °F 55% 29.95 in 10.0 mi SSW 3.5 mph - N/A   Clear
7:40 PM 62.6 °F 46.4 °F 55% 29.95 in 10.0 mi Calm Calm - N/A   Clear
8:00 PM 62.6 °F 46.4 °F 55% 29.95 in 10.0 mi South 3.5 mph - N/A   Clear
8:20 PM 62.6 °F 46.4 °F 55% 29.96 in 10.0 mi South 3.5 mph - N/A   Clear
8:40 PM 60.8 °F 46.4 °F 59% 29.96 in 10.0 mi South 3.5 mph - N/A   Clear
9:00 PM 60.8 °F 46.4 °F 59% 29.96 in 10.0 mi South 4.6 mph - N/A   Clear
9:20 PM 59.0 °F 46.4 °F 63% 29.96 in 10.0 mi South 4.6 mph - N/A   Clear
9:40 PM 57.2 °F 46.4 °F 67% 29.96 in 10.0 mi SSW 4.6 mph - N/A   Clear
10:00 PM 57.2 °F 46.4 °F 67% 29.96 in 10.0 mi SSW 4.6 mph - N/A   Clear
10:20 PM 57.2 °F 46.4 °F 67% 29.97 in 10.0 mi WSW 5.8 mph - N/A   Clear
10:40 PM 57.2 °F 46.4 °F 67% 29.97 in 10.0 mi SW 8.1 mph - N/A   Clear
11:00 PM 59.0 °F 46.4 °F 63% 29.97 in 10.0 mi SW 8.1 mph - N/A   Scattered Clouds
11:20 PM 60.8 °F 44.6 °F 55% 29.97 in 10.0 mi SW 9.2 mph - N/A   Scattered Clouds
11:40 PM 59.0 °F 44.6 °F 59% 29.97 in 10.0 mi SW 9.2 mph - N/A   Scattered Clouds